FW8418 Weather Reports


time (UTC)temp
F
wind
direction
speed
knots
gust
knots
rain 1hr
in
rain 24hr
in
rain mn
in
humidity
%
barometer
mb
20260507011549 49 304 0.0 4.3 0.00 0.00 0.00 49 1013.0
20260507010047 49 260 0.9 4.3 0.00 0.00 0.00 49 1013.0
20260507004547 49 242 0.9 7.8 0.00 0.00 0.00 49 1012.9
20260507003049 50 302 3.5 8.7 0.00 0.00 0.00 49 1012.9
20260507001546 50 256 0.0 3.5 0.00 0.00 0.00 49 1012.7
20260507000047 50 0 0.0 6.1 0.00 0.00 0.00 49 1012.7
20260506234616 51 308 1.7 7.8 0.00 0.00 0.00 49 1012.7
20260506233042 51 317 1.7 10.4 0.00 0.00 0.00 49 1012.5
20260506231555 51 334 0.9 8.7 0.00 0.00 0.00 50 1012.4
20260506230050 52 311 2.6 7.0 0.00 0.00 0.00 50 1012.3
20260506224548 52 334 3.5 7.8 0.00 0.00 0.00 49 1012.3
20260506223050 52 0 1.7 7.8 0.00 0.00 0.00 49 1012.2
20260506221545 52 236 2.6 8.7 0.00 0.00 0.00 47 1012.3
20260506220046 52 342 2.6 9.6 0.00 0.00 0.00 48 1012.3
20260506214549 52 301 2.6 9.6 0.00 0.04 0.00 47 1012.2
20260506213046 52 271 2.6 11.3 0.00 0.04 0.00 49 1012.2
20260506211549 52 269 2.6 8.7 0.00 0.04 0.00 50 1012.2
20260506210046 51 330 0.9 7.8 0.00 0.04 0.00 49 1012.3
20260506204553 52 307 1.7 7.8 0.00 0.05 0.00 48 1012.2
20260506203047 52 288 3.5 13.0 0.00 0.05 0.00 50 1012.2
20260506201547 52 317 2.6 9.6 0.00 0.05 0.00 49 1012.2
20260506200105 52 311 3.5 10.4 0.00 0.05 0.00 48 1012.3
20260506194550 51 251 3.5 10.4 0.00 0.05 0.00 49 1012.6
20260506193043 52 345 4.3 10.4 0.00 0.05 0.00 48 1012.6
20260506191545 51 291 0.9 9.6 0.00 0.05 0.00 52 1012.7
20260506190053 50 355 3.5 10.4 0.00 0.05 0.00 49 1012.9
20260506184549 50 329 5.2 9.6 0.00 0.05 0.00 50 1012.9
20260506183103 51 259 3.5 16.5 0.00 0.05 0.00 52 1012.6
20260506181559 50 333 4.3 11.3 0.00 0.05 0.00 50 1012.5
20260506180056 50 342 7.8 12.2 0.00 0.05 0.00 52 1012.7
20260506174550 50 284 6.1 11.3 0.00 0.05 0.00 52 1012.8
20260506173055 49 285 4.3 9.6 0.00 0.05 0.00 56 1013.1
20260506171548 49 355 5.2 11.3 0.00 0.05 0.00 58 1013.2
20260506170054 48 319 7.0 12.2 0.00 0.05 0.00 57 1013.1
20260506164555 49 291 4.3 11.3 0.00 0.08 0.00 57 1013.0
20260506163054 48 286 5.2 13.0 0.00 0.08 0.00 58 1013.0
20260506161557 48 298 8.7 15.6 0.00 0.08 0.00 56 1012.8
20260506160049 48 323 7.8 19.1 0.00 0.08 0.00 57 1013.0
20260506154555 48 346 8.7 14.8 0.00 0.11 0.00 61 1012.9
20260506153047 48 355 8.7 14.8 0.00 0.11 0.00 61 1012.7
20260506151605 49 13 6.1 13.9 0.00 0.11 0.00 60 1012.5
20260506150051 48 277 8.7 14.8 0.00 0.11 0.00 57 1012.5
20260506144545 48 260 4.3 13.0 0.00 0.11 0.00 56 1012.3
20260506143051 49 320 6.1 12.2 0.00 0.11 0.00 58 1012.3
20260506141544 49 325 5.2 10.4 0.00 0.11 0.00 58 1012.0
20260506140051 48 336 1.7 9.6 0.00 0.11 0.00 60 1011.9
20260506134545 47 342 6.1 13.0 0.00 0.11 0.00 60 1011.6
20260506133052 47 339 7.0 12.2 0.00 0.11 0.00 58 1011.7
20260506131552 47 319 3.5 9.6 0.00 0.11 0.00 61 1011.4
20260506130057 46 298 1.7 7.8 0.00 0.11 0.00 63 1011.3
20260506124544 46 280 2.6 10.4 0.00 0.11 0.00 62 1011.1
20260506123046 45 10 3.5 10.4 0.00 0.11 0.00 64 1010.9
20260506121543 44 342 2.6 9.6 0.00 0.11 0.00 67 1010.8
20260506120047 43 302 3.5 7.0 0.00 0.11 0.00 67 1010.7
20260506114546 42 304 2.6 5.2 0.00 0.11 0.00 68 1010.6
20260506113047 42 304 1.7 6.1 0.00 0.11 0.00 70 1010.5
20260506111546 42 304 2.6 6.1 0.00 0.11 0.00 69 1010.1
20260506110056 42 314 2.6 6.1 0.00 0.11 0.00 68 1010.1
20260506104558 42 301 1.7 5.2 0.00 0.11 0.00 67 1009.8
20260506103048 43 306 2.6 6.1 0.00 0.11 0.00 66 1009.7
20260506101554 43 294 1.7 6.1 0.00 0.11 0.00 65 1009.5
20260506100047 44 332 1.7 7.8 0.00 0.11 0.00 65 1009.7
20260506094554 44 340 3.5 7.8 0.00 0.11 0.00 63 1009.5
20260506093055 44 309 2.6 6.1 0.00 0.11 0.00 65 1009.2
20260506091548 44 320 2.6 7.8 0.00 0.11 0.00 65 1008.9
20260506090046 44 308 3.5 8.7 0.00 0.11 0.00 64 1008.9
20260506084551 45 332 3.5 7.8 0.00 0.11 0.00 65 1009.0
20260506083047 45 294 2.6 7.8 0.00 0.11 0.00 64 1008.7
20260506081552 45 313 3.5 7.8 0.00 0.11 0.00 64 1008.9
20260506073047 45 329 3.5 9.6 0.00 0.11 0.00 64 1009.1
20260506071606 46 289 4.3 8.7 0.00 0.11 0.00 64 1008.9
20260506061549 46 310 2.6 6.1 0.00 0.11 0.00 63 1009.1
20260506044555 47 318 2.6 7.0 0.00 0.20 0.00 64 1009.2
20260506043046 47 293 0.9 6.1 0.00 0.20 0.00 64 1009.1
20260506041559 47 310 0.9 7.8 0.00 0.20 0.00 63 1008.9
20260506040053 47 334 2.6 6.1 0.00 0.20 0.00 64 1009.0
20260506034547 47 0 1.7 7.0 0.00 0.21 0.20 63 1008.9
20260506033046 47 318 2.6 6.1 0.00 0.21 0.20 62 1008.8
20260506031547 47 0 2.6 6.1 0.00 0.21 0.20 61 1008.9
20260506030048 47 304 0.9 3.5 0.00 0.21 0.20 63 1008.9
20260506024552 48 0 0.0 3.5 0.00 0.21 0.20 60 1008.9
20260506023049 48 0 0.0 3.5 0.00 0.21 0.20 60 1009.0
20260506021553 48 300 1.7 4.3 0.00 0.21 0.20 59 1008.9
20260506020049 48 259 0.0 4.3 0.00 0.21 0.20 60 1008.8
20260506014553 48 311 0.9 6.1 0.00 0.21 0.20 59 1008.7
20260506013044 48 0 0.9 5.2 0.00 0.21 0.20 59 1008.6